{"data":{"norad_id":64562,"intl_designator":"2025-135AL","name":"HUBBLE 6","alt_names":[],"object_type":"PAYLOAD","status":"ACTIVE","operator":null,"country":"US","launch_date":"2025-06-23","launch_site_code":"AFWTR","launch_vehicle":null,"mission":null,"orbit_class":"UNKNOWN","rcs_meters":null,"size_class":null,"mass_kg":null,"dimensions":null,"purposes":[],"wikipedia_slug":null,"has_3d_model":false,"image_url":null,"decayed_at":null,"tle_current":{"epoch":"2026-05-24T17:50:53.645280Z","epoch_age_seconds":107732,"freshness":"FRESH","line1":"1 64562U 25135AL  26144.74367645  .00002028  00000+0  19739-3 0  9991","line2":"2 64562  97.7727 259.1699 0001489 106.9280 253.2103 14.93641887 50375","mean_motion":14.93641887,"eccentricity":0.0001489,"inclination_deg":97.7727,"raan_deg":259.1699,"arg_perigee_deg":106.928,"mean_anomaly_deg":253.2103,"bstar":0.00019739,"rev_number":5037,"period_min":96.408651399852,"perigee_km":585.55435224709,"apogee_km":587.6284483647,"semimajor_km":6964.7284003059,"source":"CELESTRAK","updated_at":"2026-05-25T13:38:04.617698Z"}}}